Location: ???? ?????
(30.0052°N, 31.2891°E)
Time: 09:05:54
(UTC+00:00)

SEDSat Delta rocket - Pass Details

Date: 08 October 2022
Orbit: 532 x 995 km, 31.4° (Epoch: 04 December)

Event Time Altitude Azimuth Distance (km) Brightness Sun altitude
Rises 17:34:40 0° 278° (W) 3,271 8.1 -27.3°
Reaches altitude 10° 17:37:14 10° 269° (W) 2,416 7.0 -27.8°
Maximum altitude 17:42:30 35° 205° (SSW) 1,389 4.8 -28.9°
Enters shadow 17:43:15 34° 190° (S) 1,431 4.8 -29.1°
